Hourly Data Report for October 18, 2004

SHERBROOKE A
QUEBEC

45°26'00.000" N
71°41'00.000" W
241.40 m
7028124
71610
YSC

Download Data

Hourly Data (October 2004)
Hourly Data Report for October 18, 2004
TIME
LST
Temp Definition
°C
Dew Point Definition
°C
Rel Hum Definition
%
Precip. Amount Definition
mm

Wind Dir Definition
10's deg

Wind Spd Definition
km/h
Visibility Definition
km
Stn Press Definition
kPa
Hmdx Definition


Wind Chill Definition


Weather Definition


00:00 4.4 2.6 88   25 22 15.0 97.76     Rain
01:00 4.1 2.6 90   21 11 15.0 97.82      
02:00 3.9 2.6 91   22 7 15.0 97.89      
03:00 4.4 2.8 89   25 13 15.0 97.99      
04:00 4.4 2.7 89   24 6 15.0 98.08     Rain
05:00 4.5 1.9 83   25 15 15.0 98.16      
06:00 4.3 1.0 79   25 15 15.0 98.27      
07:00 4.3 1.1 80   25 9 24.1 98.39     Mostly Cloudy
08:00 4.4 0.6 76   25 13 24.1 98.49     Cloudy
09:00 4.7 0.7 75   25 17 24.1 98.55     Mostly Cloudy
10:00 5.1 0.7 73   27 19 24.1 98.60     Mostly Cloudy
11:00 5.7 1.0 72   26 11 24.1 98.65     Mostly Cloudy
12:00 5.8 0.8 70   26 17 24.1 98.72     Mostly Cloudy
13:00 5.7 0.7 70   27 17 24.1 98.84     Cloudy
14:00 5.8 0.5 69   26 11 24.1 98.87     Cloudy
15:00 5.6 0.1 68   27 13 24.1 98.95     Cloudy
16:00 5.2 -0.1 69   24 15 24.1 99.00     Cloudy
17:00 4.8 -0.4 69   26 15 15.0 99.07      
18:00 4.4 -0.8 69   24 4 15.0 99.14      
19:00 3.0 -0.9 76   23 6 15.0 99.17      
20:00 2.6 -0.8 78   23 7 15.0 99.23      
21:00 2.8 -0.3 80   22 7 15.0 99.29      
22:00 3.3 0.3 81   22 4 15.0 99.30      
23:00 3.5 0.8 82     0 15.0 99.30      

Notes on Data Quality.

Legend

  • E = Estimated
  • M = Missing
  • NA = Not Available*
  • [empty] = Indicates an unobserved value
Date modified: